• In Hungary
  • List of Countries
  • For 7 days
  • Water Temperature
  • Satellite Maps
  • Weather Map
  • News
  • Weather Widgets
  • user-avatar
    Login

    Hourly Weather Venecianovo

    Today, 24 September, Monday

    Time Temperature Precipitation Wind Pressure Humidity
    00:00 +7°C° 0 mm 2 mps 738 mmHg 93%
    01:00 +7°C° 0 mm 2 mps 738 mmHg 94%
    02:00 +7°C° 0 mm 3 mps 738 mmHg 95%
    03:00 +5°C° 0 mm 3 mps 738 mmHg 96%
    04:00 +5°C° 0 mm 3 mps 738 mmHg 96%
    05:00 +6°C° 0 mm 2 mps 738 mmHg 97%
    06:00 +7°C° 0 mm 3 mps 738 mmHg 94%
    07:00 +7°C° 0 mm 3 mps 738 mmHg 91%
    08:00 +8°C° 0 mm 3 mps 738 mmHg 88%
    09:00 +9°C° 0 mm 3 mps 738 mmHg 82%
    10:00 +10°C° 0 mm 3 mps 738 mmHg 76%
    11:00 +12°C° 0 mm 3 mps 738 mmHg 71%
    12:00 +12°C° 0.3 mm 2 mps 738 mmHg 73%
    13:00 +12°C° 0.3 mm 2 mps 737 mmHg 75%
    14:00 +12°C° 0.3 mm 2 mps 737 mmHg 78%
    15:00 +10°C° 0.8 mm 2 mps 737 mmHg 83%
    16:00 +9°C° 0.8 mm 2 mps 736 mmHg 88%
    17:00 +9°C° 0.8 mm 2 mps 736 mmHg 94%
    18:00 +8°C° 0.7 mm 2 mps 735 mmHg 94%
    19:00 +8°C° 0.7 mm 2 mps 735 mmHg 95%
    20:00 +8°C° 0.7 mm 3 mps 734 mmHg 95%
    21:00 +8°C° 1.2 mm 3 mps 733 mmHg 95%
    22:00 +8°C° 1.2 mm 3 mps 733 mmHg 95%
    23:00 +6°C° 1.2 mm 4 mps 732 mmHg 95%

    Tomorrow, 25 September, Tuesday

    Time Temperature Precipitation Wind Pressure Humidity
    00:00 +6°C° 1.3 mm 4 mps 731 mmHg 94%
    01:00 +6°C° 1.3 mm 4 mps 731 mmHg 94%
    02:00 +6°C° 1.3 mm 5 mps 731 mmHg 93%
    03:00 +6°C° 1.3 mm 5 mps 731 mmHg 93%
    04:00 +5°C° 1.3 mm 6 mps 731 mmHg 92%
    05:00 +5°C° 1.3 mm 6 mps 731 mmHg 91%
    06:00 +5°C° 0.8 mm 6 mps 731 mmHg 90%
    07:00 +5°C° 0.8 mm 6 mps 732 mmHg 89%
    08:00 +5°C° 0.8 mm 7 mps 732 mmHg 88%
    09:00 +5°C° 0.3 mm 7 mps 733 mmHg 86%
    10:00 +5°C° 0.3 mm 7 mps 734 mmHg 84%
    11:00 +6°C° 0.3 mm 7 mps 735 mmHg 81%
    12:00 +6°C° 0.2 mm 7 mps 735 mmHg 77%
    13:00 +6°C° 0.2 mm 7 mps 736 mmHg 73%
    14:00 +6°C° 0.2 mm 7 mps 737 mmHg 69%
    15:00 +7°C° 0.1 mm 6 mps 737 mmHg 70%
    16:00 +7°C° 0.1 mm 6 mps 738 mmHg 71%
    17:00 +6°C° 0.1 mm 5 mps 739 mmHg 71%
    18:00 +5°C° 0 mm 5 mps 740 mmHg 72%
    19:00 +5°C° 0 mm 5 mps 741 mmHg 74%
    20:00 +3°C° 0 mm 5 mps 742 mmHg 75%
    21:00 +2°C° 0 mm 5 mps 743 mmHg 72%
    22:00 +2°C° 0 mm 5 mps 743 mmHg 70%
    23:00 +1°C° 0 mm 5 mps 744 mmHg 67%

    Day after tomorrow, 26 September, Wednesday

    Time Temperature Precipitation Wind Pressure Humidity
    00:00 +1°C° 0 mm 4 mps 745 mmHg 68%
    01:00 0°C° 0 mm 4 mps 745 mmHg 70%
    02:00 0°C° 0 mm 4 mps 746 mmHg 71%
    03:00 0°C° 0 mm 4 mps 746 mmHg 73%
    04:00 +1°C° 0 mm 3 mps 747 mmHg 76%
    05:00 +1°C° 0 mm 3 mps 747 mmHg 79%
    06:00 +2°C° 0 mm 3 mps 747 mmHg 78%
    07:00 +3°C° 0 mm 4 mps 748 mmHg 78%
    08:00 +4°C° 0 mm 4 mps 748 mmHg 77%
    09:00 +6°C° 0 mm 4 mps 748 mmHg 73%
    10:00 +7°C° 0 mm 4 mps 748 mmHg 69%
    11:00 +10°C° 0 mm 4 mps 748 mmHg 65%
    12:00 +9°C° 0 mm 5 mps 747 mmHg 60%
    13:00 +10°C° 0 mm 5 mps 747 mmHg 56%
    14:00 +10°C° 0 mm 5 mps 746 mmHg 52%
    15:00 +9°C° 0 mm 5 mps 745 mmHg 56%
    16:00 +8°C° 0 mm 5 mps 744 mmHg 60%
    17:00 +7°C° 0 mm 5 mps 744 mmHg 63%
    18:00 +7°C° 0.5 mm 6 mps 743 mmHg 70%
    19:00 +5°C° 0.5 mm 6 mps 742 mmHg 76%
    20:00 +4°C° 0.5 mm 7 mps 741 mmHg 82%
    21:00 +4°C° 1.3 mm 7 mps 739 mmHg 84%
    22:00 +4°C° 1.3 mm 7 mps 738 mmHg 85%
    23:00 +4°C° 1.3 mm 7 mps 737 mmHg 87%

    27 September, Thursday

    Time Temperature Precipitation Wind Pressure Humidity
    00:00 +4°C° 0.8 mm 7 mps 736 mmHg 88%
    01:00 +4°C° 0.8 mm 6 mps 735 mmHg 88%
    02:00 +4°C° 0.8 mm 6 mps 734 mmHg 89%
    03:00 +6°C° 0.5 mm 5 mps 734 mmHg 90%
    04:00 +6°C° 0.5 mm 5 mps 734 mmHg 90%
    05:00 +6°C° 0.5 mm 4 mps 733 mmHg 91%
    06:00 +6°C° 0.1 mm 4 mps 734 mmHg 87%
    07:00 +7°C° 0.1 mm 4 mps 734 mmHg 84%
    08:00 +7°C° 0.1 mm 4 mps 734 mmHg 81%
    09:00 +7°C° 0.3 mm 5 mps 734 mmHg 77%
    10:00 +8°C° 0.3 mm 5 mps 734 mmHg 73%
    11:00 +8°C° 0.3 mm 6 mps 734 mmHg 70%
    12:00 +8°C° 0.1 mm 6 mps 735 mmHg 66%
    13:00 +9°C° 0.1 mm 6 mps 735 mmHg 63%
    14:00 +9°C° 0.1 mm 6 mps 735 mmHg 59%
    15:00 +8°C° 0 mm 5 mps 736 mmHg 62%
    16:00 +7°C° 0 mm 4 mps 736 mmHg 65%
    17:00 +8°C° 0 mm 3 mps 737 mmHg 69%
    18:00 +7°C° 0 mm 3 mps 737 mmHg 71%
    19:00 +5°C° 0 mm 3 mps 737 mmHg 73%
    20:00 +5°C° 0 mm 3 mps 738 mmHg 75%
    21:00 +4°C° 0 mm 3 mps 738 mmHg 77%
    22:00 +4°C° 0 mm 3 mps 738 mmHg 79%
    23:00 +4°C° 0 mm 3 mps 738 mmHg 81%

    28 September, Friday

    Time Temperature Precipitation Wind Pressure Humidity
    00:00 +4°C° 0 mm 3 mps 738 mmHg 83%
    01:00 +3°C° 0 mm 3 mps 738 mmHg 85%
    02:00 +3°C° 0 mm 3 mps 737 mmHg 87%
    03:00 +3°C° 0.7 mm 3 mps 736 mmHg 88%
    04:00 +3°C° 0.7 mm 3 mps 735 mmHg 89%
    05:00 +3°C° 0.7 mm 3 mps 734 mmHg 90%
    06:00 +3°C° 2.9 mm 3 mps 732 mmHg 91%
    07:00 +3°C° 2.9 mm 3 mps 730 mmHg 92%
    08:00 +4°C° 2.9 mm 4 mps 729 mmHg 93%
    09:00 +4°C° 1 mm 4 mps 729 mmHg 92%
    10:00 +5°C° 1 mm 5 mps 729 mmHg 91%
    11:00 +5°C° 1 mm 5 mps 729 mmHg 90%
    12:00 +5°C° 0.7 mm 5 mps 730 mmHg 89%
    13:00 +4°C° 0.7 mm 6 mps 732 mmHg 87%
    14:00 +4°C° 0.7 mm 6 mps 733 mmHg 86%
    15:00 +5°C° 0.1 mm 5 mps 734 mmHg 86%
    16:00 +5°C° 0.1 mm 4 mps 736 mmHg 86%
    17:00 +5°C° 0.1 mm 4 mps 737 mmHg 86%
    18:00 +5°C° 0.1 mm 4 mps 738 mmHg 87%
    19:00 +5°C° 0.1 mm 5 mps 738 mmHg 87%
    20:00 +3°C° 0.1 mm 5 mps 739 mmHg 88%
    21:00 +3°C° 0.1 mm 5 mps 740 mmHg 86%
    22:00 +2°C° 0.1 mm 5 mps 741 mmHg 85%
    23:00 +1°C° 0.1 mm 4 mps 741 mmHg 84%

    29 September, Saturday

    Time Temperature Precipitation Wind Pressure Humidity
    00:00 +1°C° 0 mm 4 mps 742 mmHg 86%
    01:00 0°C° 0 mm 4 mps 743 mmHg 87%
    02:00 0°C° 0 mm 4 mps 743 mmHg 88%
    03:00 0°C° 0 mm 4 mps 744 mmHg 88%
    04:00 -1°C° 0 mm 4 mps 744 mmHg 88%
    05:00 -1°C° 0 mm 4 mps 745 mmHg 88%
    06:00 0°C° 0 mm 4 mps 746 mmHg 84%
    07:00 0°C° 0 mm 4 mps 746 mmHg 80%
    08:00 +1°C° 0 mm 5 mps 747 mmHg 76%
    09:00 +2°C° 0 mm 5 mps 748 mmHg 72%
    10:00 +2°C° 0 mm 5 mps 748 mmHg 68%
    11:00 +3°C° 0 mm 5 mps 749 mmHg 63%
    12:00 +5°C° 0 mm 5 mps 749 mmHg 60%
    13:00 +5°C° 0 mm 4 mps 750 mmHg 57%
    14:00 +6°C° 0 mm 4 mps 750 mmHg 53%
    15:00 +5°C° 0 mm 4 mps 750 mmHg 58%
    16:00 +4°C° 0 mm 3 mps 751 mmHg 63%
    17:00 +4°C° 0 mm 2 mps 751 mmHg 67%
    18:00 +4°C° 0 mm 2 mps 751 mmHg 71%
    19:00 +2°C° 0 mm 3 mps 751 mmHg 74%
    20:00 +2°C° 0 mm 3 mps 751 mmHg 78%
    21:00 +3°C° 0 mm 3 mps 752 mmHg 80%
    22:00 +3°C° 0 mm 3 mps 752 mmHg 83%
    23:00 +3°C° 0 mm 4 mps 752 mmHg 85%
    Show more

    3.3.7123123